Weather reports worldwide

Advertisment
Ploce, Croatia (14462): temperature & dewpoint: 17.01.2019 03:00:00 - 23.01.2019 03:00:00 (CET)Ploce, Croatia (14462): wind speed: 17.01.2019 03:00:00 - 23.01.2019 03:00:00 (CET)Ploce, Croatia (14462): wind direction: 17.01.2019 03:00:00 - 23.01.2019 03:00:00 (CET)Ploce, Croatia (14462): reduced air pressure: 17.01.2019 03:00:00 - 23.01.2019 03:00:00 (CET)Ploce, Croatia (14462): visibility: 17.01.2019 03:00:00 - 23.01.2019 03:00:00 (CET)
Date & Time tt [°C] td [°C] ff [km/h] ff [kn] dd ppp [hPa] vv [km]
23.01.2019 03:00:00 - - - - - - -
23.01.2019 02:00:00 - - - - - - -
23.01.2019 01:00:00 5,2 4,4 4 2 ENE 1001,5 -
23.01.2019 00:00:00 - - - - - - -
22.01.2019 23:00:00 - - - - - - -
22.01.2019 22:00:00 6,7 5,6 0 0 N 1001,7 -
22.01.2019 21:00:00 7,1 6,5 11 6 N 1001,8 5
22.01.2019 20:00:00 7,3 6,9 4 2 E 1001,8 5
22.01.2019 19:00:00 7,3 6,9 14 8 NNE 1001,5 5
22.01.2019 18:00:00 - 5,7 18 10 N 1001,6 -
22.01.2019 17:00:00 7,3 5,7 22 12 N 1001,6 -
22.01.2019 16:00:00 7,4 5,9 4 2 SSE 1003,1 -
22.01.2019 15:00:00 7,1 5,6 14 8 NNE 1003,5 -
22.01.2019 14:00:00 7,3 5,9 25 14 NNW 1004,1 2,0
22.01.2019 13:00:00 6,9 5,5 25 14 NNW 1004,9 2,0
22.01.2019 12:00:00 6,8 5,3 25 14 NNW 1005,5 5
22.01.2019 11:00:00 6,8 5,3 25 14 NNE 1007,0 5
22.01.2019 10:00:00 7,0 5,6 25 14 NNE 1007,5 5
22.01.2019 09:00:00 6,8 4,9 22 12 N 1007,8 -
22.01.2019 08:00:00 7,0 5,3 18 10 NNE 1008,3 5
22.01.2019 07:00:00 7,0 5,6 18 10 NNE 1008,5 5
22.01.2019 06:00:00 6,8 5,2 18 10 N 1009,4 -
22.01.2019 05:00:00 6,8 5,2 14 8 NNE 1010,2 -
22.01.2019 04:00:00 6,5 5,0 7 4 N 1010,8 -
22.01.2019 03:00:00 - - - - - - -
22.01.2019 02:00:00 - - - - - - -
22.01.2019 01:00:00 5,9 4,8 4 2 ENE 1012,4 -
22.01.2019 00:00:00 - - - - - - -
21.01.2019 23:00:00 - - - - - - -
21.01.2019 22:00:00 6,3 4,4 7 4 E 1013,2 -
21.01.2019 21:00:00 6,8 4,7 7 4 ESE 1013,4 20
21.01.2019 20:00:00 7,1 5,4 14 8 NE 1013,5 20
21.01.2019 19:00:00 7,4 5,8 7 4 NNE 1013,9 15
21.01.2019 18:00:00 7,3 5,8 0 0 N 1014,7 -
21.01.2019 17:00:00 7,6 5,8 7 4 SE 1014,8 -
21.01.2019 16:00:00 8,3 5,3 7 4 ESE 1014,6 -
21.01.2019 15:00:00 8,2 5,7 7 4 ENE 1014,9 -
21.01.2019 14:00:00 8,8 6,8 14 8 N 1014,5 18
21.01.2019 13:00:00 8,0 6,2 11 6 E 1015,0 18
21.01.2019 12:00:00 7,5 6,1 7 4 ESE 1015,4 20
21.01.2019 11:00:00 7,8 6,8 11 6 N 1015,9 18
21.01.2019 10:00:00 7,0 5,3 4 2 ESE 1016,3 18
21.01.2019 09:00:00 6,6 5,6 7 4 E 1015,2 20
21.01.2019 08:00:00 6,0 4,7 7 4 ENE 1015,5 30
21.01.2019 07:00:00 6,4 5,1 7 4 ENE 1015,3 20
21.01.2019 06:00:00 6,4 4,5 4 2 SE 1015,4 -
21.01.2019 05:00:00 6,4 4,8 4 2 E 1015,4 -
21.01.2019 04:00:00 6,5 5,0 7 4 NNW 1015,7 -
21.01.2019 03:00:00 - - - - - - -
21.01.2019 02:00:00 - - - - - - -
21.01.2019 01:00:00 7,1 6,0 0 0 N 1016,2 -
21.01.2019 00:00:00 - - - - - - -
20.01.2019 23:00:00 - - - - - - -
20.01.2019 22:00:00 7,4 4,8 4 2 N 1015,7 -
20.01.2019 21:00:00 6,8 5,1 11 6 NNW 1015,2 30
20.01.2019 20:00:00 6,7 5,0 4 2 NE 1015,0 30
20.01.2019 19:00:00 7,5 5,9 7 4 NNW 1014,5 30
20.01.2019 18:00:00 8,1 6,1 4 2 NNW 1014,7 -
20.01.2019 17:00:00 9,0 6,5 0 0 N 1014,4 -
20.01.2019 16:00:00 10,3 5,5 0 0 N 1014,3 -
20.01.2019 15:00:00 10,5 5,5 7 4 SSW 1014,3 -
20.01.2019 14:00:00 11,6 5,2 4 2 ENE 1013,9 30
20.01.2019 13:00:00 12,0 5,7 7 4 ESE 1014,2 30
20.01.2019 12:00:00 11,5 6,2 7 4 SSE 1014,6 30
20.01.2019 11:00:00 10,0 5,8 14 8 NNE 1014,6 30
20.01.2019 10:00:00 8,2 5,8 14 8 NNW 1014,5 30
20.01.2019 09:00:00 7,6 5,8 7 4 NNE 1014,1 30
20.01.2019 08:00:00 5,0 4,1 0 0 N 1013,7 30
20.01.2019 07:00:00 5,4 4,5 7 4 ENE 1013,1 30
20.01.2019 06:00:00 6,8 5,3 11 6 NNW 1012,8 -
20.01.2019 05:00:00 6,8 5,5 4 2 S 1013,0 -
20.01.2019 04:00:00 6,7 5,2 4 2 ESE 1012,8 -
20.01.2019 03:00:00 - - - - - - -
20.01.2019 02:00:00 - - - - - - -
20.01.2019 01:00:00 7,1 5,0 7 4 NNE 1013,5 -
20.01.2019 00:00:00 - - - - - - -
19.01.2019 23:00:00 - - - - - - -
19.01.2019 22:00:00 7,1 5,5 7 4 E 1014,2 -
19.01.2019 21:00:00 7,4 6,0 18 10 NNE 1013,9 15
19.01.2019 20:00:00 7,8 6,8 11 6 N 1014,0 15
19.01.2019 19:00:00 7,8 7,0 18 10 N 1013,6 15
19.01.2019 18:00:00 7,6 6,1 11 6 N 1013,8 -
19.01.2019 17:00:00 7,9 6,1 14 8 NNW 1013,7 -
19.01.2019 16:00:00 7,7 6,2 14 8 N 1013,8 -
19.01.2019 15:00:00 8,0 6,2 14 8 N 1013,8 -
19.01.2019 14:00:00 7,6 6,6 22 12 NNE 1014,0 5
19.01.2019 13:00:00 7,8 6,0 25 14 NNW 1014,1 18
19.01.2019 12:00:00 8,5 5,2 22 12 NNW 1014,8 20
19.01.2019 11:00:00 8,4 5,8 14 8 NNE 1015,3 20
19.01.2019 10:00:00 7,7 5,6 11 6 NE 1015,4 20
19.01.2019 09:00:00 6,3 5,2 11 6 NE 1014,9 20
19.01.2019 08:00:00 6,3 4,2 7 4 E 1014,9 18
19.01.2019 07:00:00 6,5 3,5 7 4 E 1014,7 30
19.01.2019 06:00:00 6,8 2,2 4 2 E 1014,8 -
19.01.2019 05:00:00 6,6 2,2 7 4 SSE 1014,8 -
19.01.2019 04:00:00 5,6 2,3 4 2 NE 1015,0 -
19.01.2019 03:00:00 - - - - - - -
19.01.2019 02:00:00 - - - - - - -
19.01.2019 01:00:00 7,8 2,5 14 8 NNW 1015,5 -
19.01.2019 00:00:00 - - - - - - -
18.01.2019 23:00:00 - - - - - - -
18.01.2019 22:00:00 8,7 4,8 22 12 NNE 1015,2 -
18.01.2019 21:00:00 10,2 7,3 14 8 N 1014,4 20
18.01.2019 20:00:00 10,0 7,9 11 6 NNW 1014,3 20
18.01.2019 19:00:00 9,3 7,5 11 6 NNW 1014,1 20
18.01.2019 18:00:00 9,4 6,5 7 4 NNW 1013,8 -
18.01.2019 17:00:00 10,4 6,8 7 4 NNW 1013,7 -
18.01.2019 16:00:00 12,7 7,0 7 4 SSE 1013,4 -
18.01.2019 15:00:00 13,3 6,7 11 6 S 1013,3 -
18.01.2019 14:00:00 13,5 8,9 18 10 S 1013,1 20
18.01.2019 13:00:00 13,0 9,3 18 10 S 1013,1 20
18.01.2019 12:00:00 11,8 9,4 11 6 S 1013,8 20
18.01.2019 11:00:00 12,2 8,7 18 10 ESE 1014,0 18
18.01.2019 10:00:00 11,2 8,2 11 6 E 1014,4 20
18.01.2019 09:00:00 10,6 7,9 14 8 E 1014,1 18
18.01.2019 08:00:00 10,8 7,3 18 10 E 1014,1 15
18.01.2019 07:00:00 10,8 7,7 22 12 E 1013,9 15
18.01.2019 06:00:00 10,9 6,1 7 4 ENE 1014,1 -
18.01.2019 05:00:00 11,0 6,2 11 6 E 1014,2 -
18.01.2019 04:00:00 11,2 6,0 18 10 E 1014,9 -
18.01.2019 03:00:00 - - - - - - -
18.01.2019 02:00:00 - - - - - - -
18.01.2019 01:00:00 10,3 4,1 14 8 ENE 1016,5 -
18.01.2019 00:00:00 - - - - - - -
17.01.2019 23:00:00 - - - - - - -
17.01.2019 22:00:00 10,0 2,4 14 8 E 1018,0 -
17.01.2019 21:00:00 9,9 3,6 11 6 E 1018,0 30
17.01.2019 20:00:00 9,9 4,6 18 10 E 1018,1 30
17.01.2019 19:00:00 9,8 4,7 18 10 E 1018,1 30
17.01.2019 18:00:00 10,2 4,4 14 8 E 1018,6 -
17.01.2019 17:00:00 9,9 4,3 14 8 E 1018,6 -
17.01.2019 16:00:00 10,5 4,5 18 10 E 1018,8 -
17.01.2019 15:00:00 11,0 4,5 18 10 E 1019,1 -
17.01.2019 14:00:00 11,6 5,9 22 12 ESE 1019,1 20
17.01.2019 13:00:00 11,2 4,9 14 8 ESE 1019,7 20
17.01.2019 12:00:00 8,4 3,5 0 0 N 1020,4 20
17.01.2019 11:00:00 7,2 1,6 7 4 ENE 1021,1 20
17.01.2019 10:00:00 5,0 1,0 11 6 E 1021,5 20
17.01.2019 09:00:00 4,2 -0,4 7 4 E 1021,3 30
17.01.2019 08:00:00 1,4 -0,9 11 6 ENE 1021,4 30
17.01.2019 07:00:00 1,0 -1,3 7 4 E 1021,4 30
17.01.2019 06:00:00 1,8 -1,7 7 4 ENE 1021,8 -
17.01.2019 05:00:00 2,8 -2,7 7 4 ENE 1021,7 -
17.01.2019 04:00:00 2,4 -2,5 7 4 ENE 1022,2 -
17.01.2019 03:00:00 - - - - - - -

tt = temperature
td = dewpoint
ff = wind speed
dd = wind direction
ppp = reduced air pressure
vv = visibility

Next stations